This demonstration page uses our WeatherBlox Daily Observations layout. Learn more.

Left ArrowRight Arrow

Hourly Observations for January 31, 2015

Temp ( °F °C ) Dew Point ( °F °C ) Humidity (%) Winds ( mph kmh ) Pressure ( in mb ) Visibility ( mi km ) Precip ( " mm )
12:53 am 00:53 Clear 34 1.1 19 -7.2 54 54 NNW 3 6 30.35 1028 10 16 0.00 0.00
1:53 am 01:53 Clear 33 0.6 19 -7.2 56 56 Calm 30.34 1028 10 16 0.00 0.00
2:53 am 02:53 Clear 33 0.6 19 -7.2 56 56 Calm 30.34 1028 10 16 0.00 0.00
3:53 am 03:53 Clear 31 -0.6 19 -7.2 61 61 NNW 3 6 30.34 1028 10 16 0.00 0.00
4:53 am 04:53 Clear 31 -0.6 19 -7.2 61 61 NNW 3 6 30.33 1027 10 16 0.00 0.00
5:53 am 05:53 Clear 29 -1.7 19 -7.2 66 66 Calm 30.34 1028 10 16 0.00 0.00
6:53 am 06:53 Clear 27 -2.8 20 -6.7 75 75 Calm 30.35 1028 10 16 0.00 0.00
7:53 am 07:53 Sunny 28 -2.2 20 -6.7 72 72 Calm 30.37 1028 10 16 0.00 0.00
8:53 am 08:53 Sunny 32 0 21 -6.1 64 64 Calm 30.38 1029 10 16 0.00 0.00
9:53 am 09:53 Sunny 36 2.2 22 -5.6 57 57 Calm 30.39 1029 10 16 0.00 0.00
10:53 am 10:53 Sunny 42 5.6 20 -6.7 41 41 VRB 3 6 30.40 1030 10 16 0.00 0.00
11:53 am 11:53 Sunny 46 7.8 20 -6.7 35 35 Calm 30.38 1029 10 16 0.00 0.00
12:53 pm 12:53 Sunny 48 8.9 18 -7.8 30 30 VRB 3 6 30.35 1028 10 16 0.00 0.00
1:53 pm 13:53 Sunny 51 10.6 18 -7.8 27 27 VRB 5 7 30.32 1027 10 16 0.00 0.00
2:53 pm 14:53 Sunny 52 11.1 16 -8.9 24 24 W 5 7 30.30 1026 10 16 0.00 0.00
3:53 pm 15:53 Sunny 53 11.7 15 -9.4 22 22 WNW 3 6 30.29 1026 10 16 0.00 0.00
4:53 pm 16:53 Sunny 53 11.7 17 -8.3 24 24 Calm 30.29 1026 10 16 0.00 0.00
5:53 pm 17:53 Sunny 52 11.1 19 -7.2 27 27 Calm 30.29 1026 10 16 0.00 0.00
6:53 pm 18:53 Clear 47 8.3 29 -1.7 50 50 NE 3 6 30.30 1026 10 16 0.00 0.00
7:53 pm 19:53 Clear 46 7.8 26 -3.3 46 46 Calm 30.30 1026 10 16 0.00 0.00
8:53 pm 20:53 Clear 47 8.3 27 -2.8 46 46 Calm 30.29 1026 10 16 0.00 0.00
9:53 pm 21:53 Clear 43 6.1 28 -2.2 56 56 Calm 30.29 1026 10 16 0.00 0.00
10:53 pm 22:53 Clear 42 5.6 29 -1.7 60 60 Calm 30.28 1025 10 16 0.00 0.00
11:53 pm 23:53 Clear 42 5.6 27 -2.8 55 55 Calm 30.26 1025 10 16 0.00 0.00

Powered by AerisWeather